Weather History for Punta Gorda, FL

Change the Weather History Date:

Friday, December 14, 2012

  Actual Average Record
Temperature  
Mean Temperature 67 °F -  
Max Temperature 77 °F 72 °F 87 °F (2013)
Min Temperature 57 °F 51 °F 32 °F (2010)
Cooling Degree Days 2    
Growing Degree Days 17 (Base 50)    
Moisture  
Dew Point 58 °F    
Average Humidity 81    
Maximum Humidity 93    
Minimum Humidity 56    
Precipitation  
Precipitation 0.00 in - - ()
Sea Level Pressure  
Sea Level Pressure 30.16 in    
Wind  
Wind Speed 11 mph (NNE)    
Max Wind Speed 15 mph    
Max Gust Speed 22 mph    
Visibility 10 miles    
Events      
Averages and records for this station are not official NWS values.
T = Trace of Precipitation, MM = Missing Value Source: NWS Daily Summary

Daily Weather History Graph

Daily Weather History Graph

Search for Another Location

Airport:

Trip Planner

Search our weather history database for the weather conditions in past years. The results will help you decide how hot, cold, wet, or windy it might be!

Date:

Astronomy

Dec. 14, 2012 Rise Set
Actual Time 7:09 AM EST 5:36 PM EST
Civil Twilight 6:43 AM EST 6:02 PM EST
Nautical Twilight 6:14 AM EST 6:31 PM EST
Astronomical Twilight 5:46 AM EST 6:59 PM EST
Moon 8:17 AM EST (12/14) 7:22 PM EST (12/14)
Length of Visible Light 11h 18m
Length of Day
10h 27m
Waxing Crescent, 3% of the Moon is Illuminated
Dec 14
Waxing Crescent
Dec 20
First Quarter
Dec 28
Full
Jan 4
Last Quarter
Jan 11
New

Hourly Weather History & Observations

Time (EST) Temp. Dew Point Humidity Pressure Visibility Wind Dir Wind Speed Gust Speed Precip Events Conditions
12:14 AM 57.2 °F 53.6 °F 88% 30.18 in 10.0 mi NNE 11.5 mph - N/A   Scattered Clouds
12:53 AM 57.9 °F 54.0 °F 87% 30.18 in 10.0 mi NNE 8.1 mph - N/A   Mostly Cloudy
1:53 AM 57.9 °F 54.0 °F 87% 30.18 in 10.0 mi North 11.5 mph - N/A   Overcast
2:41 AM 57.2 °F 53.6 °F 88% 30.16 in 10.0 mi NNE 12.7 mph - N/A   Overcast
2:53 AM 57.9 °F 54.0 °F 87% 30.16 in 10.0 mi NNE 12.7 mph - N/A   Overcast
3:53 AM 57.9 °F 55.0 °F 90% 30.16 in 10.0 mi NNE 10.4 mph - N/A   Overcast
4:53 AM 59.0 °F 55.0 °F 87% 30.16 in 10.0 mi NNE 10.4 mph - N/A   Overcast
5:53 AM 59.0 °F 55.9 °F 90% 30.16 in 10.0 mi NNE 15.0 mph 20.7 mph N/A   Overcast
6:53 AM 59.0 °F 57.0 °F 93% 30.17 in 10.0 mi NE 11.5 mph - N/A   Overcast
7:53 AM 60.1 °F 57.0 °F 90% 30.18 in 10.0 mi NNE 10.4 mph - N/A   Overcast
8:53 AM 61.0 °F 57.9 °F 90% 30.20 in 5.0 mi NE 12.7 mph - N/A   Overcast
9:53 AM 63.0 °F 59.0 °F 87% 30.22 in 10.0 mi NE 15.0 mph - N/A   Overcast
10:42 AM 66.2 °F 59.0 °F 78% 30.21 in 10.0 mi NE 15.0 mph - N/A   Overcast
10:53 AM 66.9 °F 59.0 °F 76% 30.21 in 10.0 mi NE 12.7 mph - N/A   Overcast
11:53 AM 72.0 °F 60.1 °F 66% 30.19 in 10.0 mi NNE 13.8 mph - N/A   Mostly Cloudy
12:14 PM 71.6 °F 60.8 °F 69% 30.18 in 10.0 mi NNE 11.5 mph - N/A   Scattered Clouds
12:53 PM 73.9 °F 61.0 °F 64% 30.16 in 10.0 mi NE 12.7 mph - N/A   Partly Cloudy
1:53 PM 75.9 °F 60.1 °F 58% 30.14 in 10.0 mi NE 12.7 mph 21.9 mph N/A   Partly Cloudy
2:53 PM 77.0 °F 60.1 °F 56% 30.12 in 10.0 mi NE 12.7 mph - N/A   Scattered Clouds
3:53 PM 75.0 °F 59.0 °F 57% 30.12 in 10.0 mi ENE 10.4 mph - N/A   Partly Cloudy
4:53 PM 73.0 °F 59.0 °F 61% 30.10 in 10.0 mi NE 9.2 mph - N/A   Clear
5:53 PM 66.9 °F 60.1 °F 79% 30.11 in 10.0 mi NNE 4.6 mph - N/A   Clear
6:53 PM 64.9 °F 59.0 °F 81% 30.13 in 10.0 mi North 5.8 mph - N/A   Clear
7:53 PM 64.0 °F 59.0 °F 84% 30.15 in 10.0 mi North 5.8 mph - N/A   Clear
8:53 PM 63.0 °F 59.0 °F 87% 30.17 in 10.0 mi North 6.9 mph - N/A   Clear
9:53 PM 62.1 °F 59.0 °F 90% 30.17 in 10.0 mi NNE 9.2 mph - N/A   Clear
10:53 PM 61.0 °F 59.0 °F 93% 30.15 in 9.0 mi NE 8.1 mph - N/A   Clear
11:53 PM 61.0 °F 59.0 °F 93% 30.13 in 10.0 mi ENE 8.1 mph - N/A   Clear